Location: Potomac
(46.8816°N, 113.5795°W)
Time: 02:24:58
(UTC+00:00)

STARS - Visible Passes

Search period start: 26 June 2022 00:00
Search period end: 06 July 2022 00:00
Orbit: 622 x 636 km, 98.2° (Epoch: 25 June)

Date Brightness Start Highest point End Pass type
(mag) Time Alt. Az. Time Alt. Az. Time Alt. Az.
26 Jun ? 06:20:11 10° NNE 06:24:36 81° ESE 06:26:26 35° S visible
26 Jun ? 07:58:10 10° NNW 08:00:15 13° WNW 08:02:19 10° W visible
27 Jun ? 05:05:35 10° ENE 05:07:59 14° E 05:09:24 13° ESE visible
27 Jun ? 06:40:20 10° N 06:44:41 64° WNW 06:46:45 30° SW visible
28 Jun ? 05:24:50 10° NE 05:28:17 22° E 05:29:42 19° ESE visible
28 Jun ? 07:00:35 10° N 07:04:43 40° WNW 07:07:04 22° SW visible
29 Jun ? 05:44:30 10° NNE 05:48:32 34° E 05:50:01 27° SE visible
29 Jun ? 07:20:59 10° N 07:24:40 27° WNW 07:27:22 15° WSW visible
30 Jun ? 06:04:24 10° NNE 06:08:43 55° E 06:10:19 34° SSE visible
30 Jun ? 07:41:35 10° NNW 07:44:35 18° WNW 07:47:33 10° WSW visible
01 Jul ? 06:24:25 10° NNE 06:28:50 87° E 06:30:37 36° SSW visible
01 Jul ? 08:02:38 10° NNW 08:04:25 12° WNW 08:06:12 10° W visible
02 Jul ? 05:09:36 10° NE 05:12:15 15° E 05:13:34 14° ESE visible
02 Jul ? 06:44:34 10° N 06:48:54 59° WNW 06:50:55 29° SW visible
03 Jul ? 05:28:57 10° NE 05:32:31 24° E 05:33:51 21° ESE visible
03 Jul ? 07:04:51 10° N 07:08:53 37° WNW 07:11:13 21° WSW visible
04 Jul ? 05:48:40 10° NNE 05:52:45 37° E 05:54:09 29° SE visible
04 Jul ? 07:25:16 10° N 07:28:50 25° WNW 07:31:30 14° WSW visible
05 Jul ? 06:08:34 10° NNE 06:12:54 59° E 06:14:26 37° SSE visible
05 Jul ? 07:45:55 10° NNW 07:48:44 17° WNW 07:51:31 10° W visible
